| time (UTC) | temp F | wind direction | speed MPH | gust MPH | rain 1hr in | rain 24hr in | rain mn in | humidity % | barometer mb |
| 20260508145525 | 55 | 313 | 2.0 | 5.0 | 0.00 | 0.00 | 0.00 | 38 | 995.4 |
| 20260508145031 | 55 | 281 | 2.0 | 6.0 | 0.00 | 0.00 | 0.00 | 38 | 995.4 |
| 20260508144542 | 56 | 356 | 2.0 | 6.0 | 0.00 | 0.00 | 0.00 | 41 | 995.4 |
| 20260508144022 | 56 | 283 | 1.0 | 7.0 | 0.00 | 0.00 | 0.00 | 42 | 995.3 |
| 20260508143534 | 55 | 253 | 1.0 | 6.0 | 0.00 | 0.00 | 0.00 | 43 | 995.2 |
| 20260508143043 | 55 | 24 | 2.0 | 6.0 | 0.00 | 0.00 | 0.00 | 37 | 995.2 |
| 20260508142524 | 55 | 311 | 1.0 | 5.0 | 0.00 | 0.00 | 0.00 | 43 | 995.3 |
| 20260508142035 | 55 | 226 | 1.0 | 6.0 | 0.00 | 0.00 | 0.00 | 40 | 995.3 |
| 20260508141544 | 54 | 270 | 1.0 | 10.0 | 0.00 | 0.00 | 0.00 | 42 | 995.4 |
| 20260508141022 | 54 | 259 | 1.0 | 10.0 | 0.00 | 0.00 | 0.00 | 43 | 995.4 |
| 20260508140534 | 54 | 336 | 2.0 | 4.0 | 0.00 | 0.00 | 0.00 | 44 | 995.5 |
| 20260508140043 | 53 | 139 | 1.0 | 3.0 | 0.00 | 0.00 | 0.00 | 42 | 995.6 |
| 20260508135524 | 53 | 316 | 0.0 | 6.0 | 0.00 | 0.00 | 0.00 | 44 | 995.7 |
| 20260508135035 | 52 | 13 | 1.0 | 9.0 | 0.00 | 0.00 | 0.00 | 45 | 995.8 |
| 20260508134545 | 52 | 201 | 3.0 | 10.0 | 0.00 | 0.00 | 0.00 | 44 | 995.8 |
| 20260508134055 | 52 | 292 | 3.0 | 10.0 | 0.00 | 0.00 | 0.00 | 43 | 995.8 |
| 20260508133556 | 52 | 333 | 1.0 | 7.0 | 0.00 | 0.00 | 0.00 | 47 | 995.9 |
| 20260508133104 | 51 | 214 | 1.0 | 7.0 | 0.00 | 0.00 | 0.00 | 49 | 995.9 |
| 20260508132543 | 50 | 56 | 2.0 | 7.0 | 0.00 | 0.00 | 0.00 | 48 | 995.9 |
| 20260508132059 | 50 | 233 | 3.0 | 9.0 | 0.00 | 0.00 | 0.00 | 52 | 996.0 |
| 20260508131609 | 50 | 238 | 2.0 | 7.0 | 0.00 | 0.00 | 0.00 | 51 | 996.0 |
| 20260508131048 | 49 | 274 | 2.0 | 6.0 | 0.00 | 0.00 | 0.00 | 51 | 996.1 |
| 20260508130610 | 49 | 304 | 2.0 | 6.0 | 0.00 | 0.00 | 0.00 | 54 | 996.1 |
| 20260508130047 | 48 | 290 | 2.0 | 6.0 | 0.00 | 0.00 | 0.00 | 55 | 996.1 |
| 20260508125550 | 48 | 318 | 1.0 | 5.0 | 0.00 | 0.00 | 0.00 | 58 | 996.1 |
| 20260508125058 | 47 | 4 | 2.0 | 5.0 | 0.00 | 0.00 | 0.00 | 57 | 996.1 |
| 20260508124545 | 46 | 325 | 1.0 | 5.0 | 0.00 | 0.00 | 0.00 | 62 | 996.0 |
| 20260508124033 | 46 | 328 | 1.0 | 5.0 | 0.00 | 0.00 | 0.00 | 65 | 996.1 |
| 20260508123545 | 45 | 280 | 1.0 | 3.0 | 0.00 | 0.00 | 0.00 | 71 | 996.1 |
| 20260508123025 | 44 | 268 | 1.0 | 2.0 | 0.00 | 0.00 | 0.00 | 72 | 996.1 |
| 20260508122531 | 43 | 210 | 0.0 | 1.0 | 0.00 | 0.00 | 0.00 | 78 | 996.1 |
| 20260508122041 | 43 | 247 | 0.0 | 0.0 | 0.00 | 0.00 | 0.00 | 82 | 996.1 |
| 20260508121521 | 43 | 247 | 0.0 | 0.0 | 0.00 | 0.00 | 0.00 | 85 | 996.1 |
| 20260508121031 | 43 | 247 | 0.0 | 0.0 | 0.00 | 0.00 | 0.00 | 86 | 996.1 |
| 20260508120543 | 43 | 247 | 0.0 | 0.0 | 0.00 | 0.00 | 0.00 | 88 | 996.1 |
| 20260508120022 | 43 | 247 | 0.0 | 0.0 | 0.00 | 0.00 | 0.00 | 90 | 996.1 |
| 20260508115531 | 42 | 247 | 0.0 | 1.0 | 0.00 | 0.00 | 0.00 | 92 | 996.1 |
| 20260508115033 | 42 | 247 | 0.0 | 1.0 | 0.00 | 0.00 | 0.00 | 93 | 996.1 |
| 20260508114522 | 42 | 247 | 0.0 | 1.0 | 0.00 | 0.00 | 0.00 | 94 | 996.1 |
| 20260508114034 | 41 | 247 | 0.0 | 0.0 | 0.00 | 0.00 | 0.00 | 95 | 996.0 |
| 20260508113540 | 40 | 247 | 0.0 | 0.0 | 0.00 | 0.00 | 0.00 | 95 | 996.0 |
| 20260508113048 | 40 | 247 | 0.0 | 0.0 | 0.00 | 0.00 | 0.00 | 96 | 996.0 |
| 20260508112528 | 40 | 247 | 0.0 | 0.0 | 0.00 | 0.00 | 0.00 | 96 | 996.0 |
| 20260508112037 | 39 | 247 | 0.0 | 0.0 | 0.00 | 0.00 | 0.00 | 96 | 996.0 |
| 20260508111526 | 39 | 247 | 0.0 | 0.0 | 0.00 | 0.00 | 0.00 | 96 | 995.9 |
| 20260508111035 | 39 | 247 | 0.0 | 1.0 | 0.00 | 0.00 | 0.00 | 96 | 995.9 |
| 20260508110525 | 38 | 247 | 0.0 | 1.0 | 0.00 | 0.00 | 0.00 | 97 | 995.8 |
| 20260508110025 | 38 | 247 | 0.0 | 0.0 | 0.00 | 0.00 | 0.00 | 97 | 995.9 |
| 20260508105532 | 38 | 247 | 0.0 | 0.0 | 0.00 | 0.00 | 0.00 | 97 | 995.7 |
| 20260508105020 | 38 | 247 | 0.0 | 0.0 | 0.00 | 0.00 | 0.00 | 97 | 995.8 |
| 20260508104526 | 37 | 247 | 0.0 | 0.0 | 0.00 | 0.00 | 0.00 | 97 | 995.8 |
| 20260508104034 | 37 | 247 | 0.0 | 0.0 | 0.00 | 0.00 | 0.00 | 97 | 995.7 |
| 20260508103546 | 37 | 247 | 0.0 | 0.0 | 0.00 | 0.00 | 0.00 | 97 | 995.7 |
| 20260508103051 | 37 | 247 | 0.0 | 0.0 | 0.00 | 0.00 | 0.00 | 97 | 995.6 |
| 20260508102558 | 36 | 247 | 0.0 | 0.0 | 0.00 | 0.00 | 0.00 | 97 | 995.5 |
| 20260508102109 | 36 | 247 | 0.0 | 0.0 | 0.00 | 0.00 | 0.00 | 96 | 995.5 |
| 20260508101548 | 36 | 247 | 0.0 | 0.0 | 0.00 | 0.00 | 0.00 | 96 | 995.5 |
| 20260508101107 | 36 | 247 | 0.0 | 0.0 | 0.00 | 0.00 | 0.00 | 96 | 995.5 |
| 20260508100550 | 36 | 247 | 0.0 | 0.0 | 0.00 | 0.00 | 0.00 | 96 | 995.4 |
| 20260508100053 | 36 | 247 | 0.0 | 0.0 | 0.00 | 0.00 | 0.00 | 96 | 995.3 |
| 20260508095541 | 36 | 247 | 0.0 | 1.0 | 0.00 | 0.00 | 0.00 | 96 | 995.3 |
| 20260508095049 | 35 | 247 | 0.0 | 1.0 | 0.00 | 0.00 | 0.00 | 96 | 995.2 |
| 20260508094558 | 35 | 247 | 0.0 | 0.0 | 0.00 | 0.00 | 0.00 | 96 | 995.2 |
| 20260508094045 | 35 | 247 | 0.0 | 0.0 | 0.00 | 0.00 | 0.00 | 96 | 995.2 |
| 20260508093555 | 35 | 247 | 0.0 | 0.0 | 0.00 | 0.00 | 0.00 | 96 | 995.2 |
| 20260508093052 | 35 | 247 | 0.0 | 0.0 | 0.00 | 0.00 | 0.00 | 96 | 995.0 |
| 20260508092557 | 36 | 247 | 0.0 | 0.0 | 0.00 | 0.00 | 0.00 | 96 | 995.2 |
| 20260508092044 | 36 | 247 | 0.0 | 0.0 | 0.00 | 0.00 | 0.00 | 96 | 995.1 |
| 20260508091552 | 36 | 247 | 0.0 | 0.0 | 0.00 | 0.00 | 0.00 | 96 | 995.0 |
| 20260508091100 | 36 | 247 | 0.0 | 0.0 | 0.00 | 0.00 | 0.00 | 96 | 994.9 |
| 20260508090551 | 36 | 247 | 0.0 | 0.0 | 0.00 | 0.00 | 0.00 | 96 | 994.9 |
| 20260508090058 | 36 | 247 | 0.0 | 0.0 | 0.00 | 0.00 | 0.00 | 96 | 994.8 |
| 20260508085546 | 36 | 247 | 0.0 | 0.0 | 0.00 | 0.00 | 0.00 | 96 | 994.9 |
| 20260508085051 | 36 | 247 | 0.0 | 0.0 | 0.00 | 0.00 | 0.00 | 96 | 994.8 |
| 20260508084555 | 36 | 247 | 0.0 | 0.0 | 0.00 | 0.00 | 0.00 | 96 | 994.9 |
| 20260508084042 | 36 | 247 | 0.0 | 0.0 | 0.00 | 0.00 | 0.00 | 96 | 994.9 |
| 20260508083552 | 35 | 247 | 0.0 | 0.0 | 0.00 | 0.00 | 0.00 | 96 | 995.0 |
| 20260508083100 | 35 | 247 | 0.0 | 0.0 | 0.00 | 0.00 | 0.00 | 96 | 995.0 |
| 20260508082544 | 35 | 247 | 0.0 | 0.0 | 0.00 | 0.00 | 0.00 | 96 | 994.9 |
| 20260508082052 | 35 | 247 | 0.0 | 0.0 | 0.00 | 0.00 | 0.00 | 96 | 994.9 |
| 20260508081559 | 35 | 247 | 0.0 | 0.0 | 0.00 | 0.00 | 0.00 | 96 | 994.9 |
| 20260508081046 | 35 | 247 | 0.0 | 0.0 | 0.00 | 0.00 | 0.00 | 96 | 994.9 |
| 20260508080553 | 35 | 247 | 0.0 | 0.0 | 0.00 | 0.00 | 0.00 | 96 | 994.8 |
| 20260508080058 | 35 | 247 | 0.0 | 0.0 | 0.00 | 0.00 | 0.00 | 96 | 994.8 |
| 20260508075545 | 35 | 247 | 0.0 | 0.0 | 0.00 | 0.00 | 0.00 | 96 | 994.8 |
| 20260508075053 | 35 | 247 | 0.0 | 0.0 | 0.00 | 0.00 | 0.00 | 96 | 994.7 |
| 20260508074541 | 35 | 247 | 0.0 | 0.0 | 0.00 | 0.00 | 0.00 | 96 | 994.7 |
| 20260508074049 | 35 | 247 | 0.0 | 0.0 | 0.00 | 0.00 | 0.00 | 96 | 994.7 |
| 20260508073602 | 35 | 247 | 0.0 | 0.0 | 0.00 | 0.00 | 0.00 | 96 | 994.6 |
| 20260508073049 | 35 | 247 | 0.0 | 0.0 | 0.00 | 0.00 | 0.00 | 96 | 994.6 |
| 20260508072554 | 35 | 247 | 0.0 | 0.0 | 0.00 | 0.00 | 0.00 | 96 | 994.6 |
| 20260508072043 | 35 | 247 | 0.0 | 0.0 | 0.00 | 0.00 | 0.00 | 96 | 994.6 |
| 20260508071524 | 35 | 247 | 0.0 | 0.0 | 0.00 | 0.00 | 0.00 | 96 | 994.6 |
| 20260508071034 | 35 | 247 | 0.0 | 0.0 | 0.00 | 0.00 | 0.00 | 96 | 994.5 |
| 20260508070524 | 35 | 247 | 0.0 | 0.0 | 0.00 | 0.00 | 0.00 | 96 | 994.5 |
| 20260508070024 | 34 | 247 | 0.0 | 1.0 | 0.00 | 0.00 | 0.00 | 96 | 994.5 |
| 20260508065535 | 34 | 247 | 0.0 | 1.0 | 0.00 | 0.00 | 0.00 | 96 | 994.5 |
| 20260508065044 | 34 | 247 | 0.0 | 0.0 | 0.00 | 0.00 | 0.00 | 96 | 994.5 |
| 20260508064525 | 34 | 247 | 0.0 | 0.0 | 0.00 | 0.00 | 0.00 | 96 | 994.5 |
| 20260508064035 | 34 | 247 | 0.0 | 0.0 | 0.00 | 0.00 | 0.00 | 96 | 994.6 |
| 20260508063547 | 33 | 247 | 0.0 | 0.0 | 0.00 | 0.00 | 0.00 | 96 | 994.6 |
| 20260508063027 | 33 | 247 | 0.0 | 0.0 | 0.00 | 0.00 | 0.00 | 96 | 994.7 |
| 20260508062538 | 33 | 247 | 0.0 | 0.0 | 0.00 | 0.00 | 0.00 | 96 | 994.6 |
| 20260508062047 | 33 | 247 | 0.0 | 0.0 | 0.00 | 0.00 | 0.00 | 96 | 994.7 |
| 20260508061525 | 32 | 247 | 0.0 | 0.0 | 0.00 | 0.00 | 0.00 | 95 | 994.6 |
| 20260508061036 | 32 | 247 | 0.0 | 0.0 | 0.00 | 0.00 | 0.00 | 95 | 994.6 |
| 20260508060522 | 32 | 247 | 0.0 | 0.0 | 0.00 | 0.00 | 0.00 | 95 | 994.7 |
| 20260508060030 | 32 | 247 | 0.0 | 0.0 | 0.00 | 0.00 | 0.00 | 95 | 994.7 |
| 20260508055530 | 32 | 247 | 0.0 | 0.0 | 0.00 | 0.00 | 0.00 | 95 | 994.8 |
| 20260508055020 | 32 | 247 | 0.0 | 0.0 | 0.00 | 0.00 | 0.00 | 95 | 994.8 |
| 20260508054531 | 32 | 247 | 0.0 | 0.0 | 0.00 | 0.00 | 0.00 | 94 | 994.8 |
| 20260508054037 | 32 | 247 | 0.0 | 0.0 | 0.00 | 0.00 | 0.00 | 94 | 994.9 |
| 20260508053541 | 32 | 247 | 0.0 | 0.0 | 0.00 | 0.00 | 0.00 | 94 | 994.8 |
| 20260508053029 | 32 | 247 | 0.0 | 0.0 | 0.00 | 0.00 | 0.00 | 94 | 994.8 |
| 20260508052537 | 32 | 247 | 0.0 | 0.0 | 0.00 | 0.00 | 0.00 | 94 | 994.8 |
| 20260508052047 | 33 | 247 | 0.0 | 0.0 | 0.00 | 0.00 | 0.00 | 94 | 994.9 |
| 20260508051524 | 33 | 247 | 0.0 | 0.0 | 0.00 | 0.00 | 0.00 | 94 | 995.0 |
| 20260508051035 | 33 | 247 | 0.0 | 0.0 | 0.00 | 0.00 | 0.00 | 94 | 994.9 |
| 20260508050546 | 33 | 247 | 0.0 | 0.0 | 0.00 | 0.00 | 0.00 | 94 | 994.9 |
| 20260508050025 | 33 | 247 | 0.0 | 0.0 | 0.00 | 0.00 | 0.00 | 94 | 994.8 |
| 20260508045536 | 33 | 247 | 0.0 | 0.0 | 0.00 | 0.00 | 0.00 | 93 | 994.7 |
| 20260508045032 | 33 | 247 | 0.0 | 0.0 | 0.00 | 0.00 | 0.00 | 93 | 994.7 |
| 20260508044521 | 33 | 247 | 0.0 | 0.0 | 0.00 | 0.00 | 0.00 | 93 | 994.6 |
| 20260508044033 | 33 | 247 | 0.0 | 0.0 | 0.00 | 0.00 | 0.00 | 93 | 994.7 |
| 20260508043534 | 33 | 247 | 0.0 | 0.0 | 0.00 | 0.00 | 0.00 | 92 | 994.7 |
| 20260508043022 | 34 | 247 | 0.0 | 0.0 | 0.00 | 0.00 | 0.00 | 92 | 994.7 |
| 20260508042523 | 34 | 247 | 0.0 | 0.0 | 0.00 | 0.00 | 0.00 | 92 | 994.8 |
| 20260508042034 | 34 | 247 | 0.0 | 0.0 | 0.00 | 0.00 | 0.00 | 92 | 994.8 |
| 20260508041523 | 34 | 247 | 0.0 | 0.0 | 0.00 | 0.00 | 0.00 | 92 | 994.8 |
| 20260508041024 | 34 | 247 | 0.0 | 0.0 | 0.00 | 0.00 | 0.00 | 91 | 994.8 |
| 20260508040537 | 34 | 247 | 0.0 | 0.0 | 0.00 | 0.00 | 0.00 | 91 | 994.8 |
| 20260508040042 | 34 | 247 | 0.0 | 0.0 | 0.00 | 0.00 | 0.00 | 90 | 994.8 |
| 20260508035522 | 34 | 247 | 0.0 | 0.0 | 0.00 | 0.00 | 0.00 | 90 | 994.8 |
| 20260508035032 | 34 | 247 | 0.0 | 0.0 | 0.00 | 0.00 | 0.00 | 90 | 994.9 |
| 20260508034543 | 34 | 247 | 0.0 | 0.0 | 0.00 | 0.00 | 0.00 | 89 | 994.9 |
| 20260508034025 | 34 | 247 | 0.0 | 0.0 | 0.00 | 0.00 | 0.00 | 88 | 994.9 |
| 20260508033536 | 34 | 247 | 0.0 | 0.0 | 0.00 | 0.00 | 0.00 | 88 | 994.8 |
| 20260508033044 | 34 | 247 | 0.0 | 0.0 | 0.00 | 0.00 | 0.00 | 87 | 994.8 |
| 20260508032525 | 35 | 247 | 0.0 | 0.0 | 0.00 | 0.00 | 0.00 | 87 | 994.8 |
| 20260508032036 | 35 | 247 | 0.0 | 0.0 | 0.00 | 0.00 | 0.00 | 87 | 994.9 |
| 20260508031532 | 35 | 247 | 0.0 | 0.0 | 0.00 | 0.00 | 0.00 | 86 | 994.8 |
| 20260508031021 | 35 | 247 | 0.0 | 0.0 | 0.00 | 0.00 | 0.00 | 85 | 994.9 |
| 20260508030533 | 36 | 247 | 0.0 | 0.0 | 0.00 | 0.00 | 0.00 | 84 | 994.9 |
| 20260508030032 | 36 | 247 | 0.0 | 0.0 | 0.00 | 0.00 | 0.00 | 84 | 994.8 |
| 20260508025522 | 37 | 247 | 0.0 | 0.0 | 0.00 | 0.00 | 0.00 | 84 | 994.8 |
| 20260508025031 | 37 | 247 | 0.0 | 0.0 | 0.00 | 0.00 | 0.00 | 84 | 994.8 |
| 20260508024531 | 37 | 247 | 0.0 | 0.0 | 0.00 | 0.00 | 0.00 | 84 | 994.7 |
| 20260508024021 | 37 | 247 | 0.0 | 0.0 | 0.00 | 0.00 | 0.00 | 84 | 994.8 |
| 20260508023523 | 37 | 247 | 0.0 | 0.0 | 0.00 | 0.00 | 0.00 | 83 | 994.7 |
| 20260508023032 | 37 | 247 | 0.0 | 0.0 | 0.00 | 0.00 | 0.00 | 82 | 994.8 |
| 20260508022521 | 37 | 247 | 0.0 | 0.0 | 0.00 | 0.00 | 0.00 | 80 | 994.8 |
| 20260508022022 | 37 | 247 | 0.0 | 0.0 | 0.00 | 0.00 | 0.00 | 79 | 994.8 |
| 20260508021532 | 38 | 247 | 0.0 | 0.0 | 0.00 | 0.00 | 0.00 | 78 | 994.8 |
| 20260508021042 | 38 | 247 | 0.0 | 0.0 | 0.00 | 0.00 | 0.00 | 78 | 994.7 |
| 20260508020553 | 38 | 247 | 0.0 | 0.0 | 0.00 | 0.00 | 0.00 | 76 | 994.7 |
| 20260508015609 | 39 | 247 | 0.0 | 0.0 | 0.00 | 0.01 | 0.00 | 73 | 994.7 |
| 20260508015057 | 39 | 247 | 0.0 | 0.0 | 0.00 | 0.01 | 0.00 | 73 | 994.6 |
| 20260508014606 | 39 | 247 | 0.0 | 0.0 | 0.00 | 0.01 | 0.00 | 73 | 994.5 |
| 20260508014044 | 39 | 247 | 0.0 | 0.0 | 0.00 | 0.01 | 0.00 | 73 | 994.5 |
| 20260508013605 | 39 | 247 | 0.0 | 0.0 | 0.00 | 0.01 | 0.00 | 73 | 994.5 |
| 20260508013041 | 40 | 247 | 0.0 | 0.0 | 0.00 | 0.01 | 0.00 | 72 | 994.5 |
| 20260508012548 | 40 | 247 | 0.0 | 0.0 | 0.00 | 0.01 | 0.00 | 71 | 994.4 |
| 20260508012052 | 40 | 247 | 0.0 | 0.0 | 0.00 | 0.01 | 0.00 | 70 | 994.4 |
| 20260508011606 | 41 | 247 | 0.0 | 0.0 | 0.00 | 0.01 | 0.00 | 70 | 994.3 |
| 20260508011046 | 42 | 247 | 0.0 | 0.0 | 0.00 | 0.01 | 0.00 | 69 | 994.3 |
| 20260508010554 | 42 | 247 | 0.0 | 0.0 | 0.00 | 0.01 | 0.00 | 67 | 994.2 |
| 20260508010021 | 43 | 247 | 0.0 | 0.0 | 0.00 | 0.05 | 0.00 | 65 | 994.1 |
| 20260508005531 | 44 | 247 | 0.0 | 0.0 | 0.00 | 0.05 | 0.00 | 63 | 994.0 |
| 20260508005031 | 44 | 247 | 0.0 | 0.0 | 0.00 | 0.05 | 0.00 | 61 | 994.0 |
| 20260508004521 | 45 | 247 | 0.0 | 0.0 | 0.00 | 0.05 | 0.00 | 61 | 993.9 |
| 20260508004021 | 46 | 247 | 0.0 | 0.0 | 0.00 | 0.05 | 0.00 | 57 | 993.8 |
| 20260508003533 | 46 | 247 | 0.0 | 0.0 | 0.00 | 0.05 | 0.00 | 55 | 993.7 |
| 20260508003021 | 47 | 247 | 0.0 | 1.0 | 0.00 | 0.05 | 0.00 | 53 | 993.7 |
| 20260508002522 | 47 | 247 | 0.0 | 1.0 | 0.00 | 0.05 | 0.00 | 53 | 993.6 |
| 20260508002029 | 48 | 221 | 0.0 | 1.0 | 0.00 | 0.05 | 0.00 | 53 | 993.6 |
| 20260508001539 | 48 | 203 | 0.0 | 0.0 | 0.00 | 0.05 | 0.00 | 51 | 993.5 |
| 20260508001048 | 49 | 203 | 0.0 | 0.0 | 0.00 | 0.05 | 0.00 | 48 | 993.5 |
| 20260508000531 | 50 | 158 | 0.0 | 0.0 | 0.00 | 0.05 | 0.00 | 46 | 993.5 |
| 20260508000035 | 50 | 203 | 0.0 | 0.0 | 0.00 | 0.08 | 0.00 | 45 | 993.4 |
| 20260507235535 | 51 | 273 | 0.0 | 0.0 | 0.00 | 0.08 | 0.00 | 43 | 993.3 |
| 20260507235023 | 51 | 103 | 0.0 | 0.0 | 0.00 | 0.08 | 0.00 | 44 | 993.3 |
| 20260507234532 | 52 | 224 | 0.0 | 0.0 | 0.00 | 0.08 | 0.00 | 42 | 993.2 |
| 20260507234034 | 52 | 286 | 0.0 | 0.0 | 0.00 | 0.08 | 0.00 | 44 | 993.2 |
| 20260507233525 | 52 | 333 | 0.0 | 0.0 | 0.00 | 0.08 | 0.00 | 42 | 993.2 |
| 20260507233024 | 53 | 35 | 0.0 | 0.0 | 0.00 | 0.08 | 0.00 | 41 | 993.1 |
| 20260507232533 | 53 | 271 | 0.0 | 1.0 | 0.00 | 0.08 | 0.00 | 41 | 993.1 |
| 20260507232035 | 54 | 288 | 0.0 | 1.0 | 0.00 | 0.08 | 0.00 | 39 | 993.0 |
| 20260507231545 | 54 | 288 | 0.0 | 3.0 | 0.00 | 0.08 | 0.00 | 37 | 993.0 |
| 20260507231026 | 55 | 243 | 0.0 | 4.0 | 0.00 | 0.08 | 0.00 | 36 | 993.0 |
| 20260507230538 | 56 | 276 | 1.0 | 4.0 | 0.00 | 0.08 | 0.00 | 36 | 993.0 |
| 20260507230046 | 57 | 262 | 0.0 | 5.0 | 0.00 | 0.12 | 0.00 | 36 | 993.0 |
| 20260507225639 | 57 | 282 | 0.0 | 5.0 | 0.00 | 0.12 | 0.00 | 35 | 992.9 |
| 20260507225053 | 57 | 117 | 1.0 | 9.0 | 0.00 | 0.12 | 0.00 | 34 | 993.0 |
| 20260507224540 | 58 | 22 | 2.0 | 9.0 | 0.00 | 0.12 | 0.00 | 33 | 992.9 |
| 20260507224048 | 58 | 290 | 1.0 | 6.0 | 0.00 | 0.12 | 0.00 | 34 | 993.0 |
| 20260507223600 | 58 | 252 | 1.0 | 6.0 | 0.00 | 0.12 | 0.00 | 33 | 992.9 |
| 20260507223046 | 59 | 250 | 2.0 | 9.0 | 0.00 | 0.12 | 0.00 | 32 | 992.9 |
| 20260507222555 | 59 | 266 | 3.0 | 10.0 | 0.00 | 0.12 | 0.00 | 31 | 992.9 |
| 20260507222043 | 59 | 257 | 3.0 | 10.0 | 0.00 | 0.12 | 0.00 | 33 | 992.9 |
| 20260507221550 | 59 | 265 | 1.0 | 8.0 | 0.00 | 0.12 | 0.00 | 33 | 992.9 |
| 20260507221054 | 59 | 52 | 2.0 | 8.0 | 0.00 | 0.12 | 0.00 | 32 | 992.8 |
| 20260507220543 | 59 | 228 | 3.0 | 8.0 | 0.00 | 0.12 | 0.00 | 32 | 992.8 |
| 20260507220049 | 60 | 274 | 3.0 | 8.0 | 0.00 | 0.16 | 0.00 | 32 | 992.8 |
| 20260507215559 | 60 | 103 | 2.0 | 9.0 | 0.00 | 0.16 | 0.00 | 33 | 992.8 |
| 20260507215047 | 60 | 6 | 2.0 | 10.0 | 0.00 | 0.16 | 0.00 | 33 | 992.8 |
| 20260507214554 | 60 | 160 | 3.0 | 10.0 | 0.00 | 0.16 | 0.00 | 33 | 992.8 |
| 20260507214041 | 60 | 189 | 3.0 | 10.0 | 0.00 | 0.16 | 0.00 | 34 | 992.8 |
| 20260507213550 | 59 | 323 | 2.0 | 5.0 | 0.00 | 0.16 | 0.00 | 35 | 992.7 |
| 20260507213054 | 59 | 240 | 0.0 | 3.0 | 0.00 | 0.16 | 0.00 | 36 | 992.7 |
| 20260507212542 | 59 | 281 | 1.0 | 6.0 | 0.00 | 0.16 | 0.00 | 35 | 992.7 |
| 20260507212049 | 60 | 214 | 3.0 | 6.0 | 0.00 | 0.16 | 0.00 | 33 | 992.8 |
| 20260507211558 | 60 | 219 | 1.0 | 7.0 | 0.00 | 0.16 | 0.00 | 36 | 992.7 |
| 20260507211047 | 60 | 99 | 2.0 | 10.0 | 0.00 | 0.16 | 0.00 | 36 | 992.8 |
| 20260507210555 | 60 | 228 | 3.0 | 12.0 | 0.00 | 0.16 | 0.00 | 34 | 992.7 |
| 20260507210105 | 60 | 254 | 2.0 | 12.0 | 0.00 | 0.19 | 0.00 | 38 | 992.6 |
| 20260507205525 | 60 | 58 | 1.0 | 14.0 | 0.00 | 0.19 | 0.00 | 36 | 992.6 |
| 20260507205034 | 60 | 309 | 3.0 | 14.0 | 0.00 | 0.19 | 0.00 | 37 | 992.6 |
| 20260507204540 | 59 | 211 | 3.0 | 9.0 | 0.00 | 0.19 | 0.00 | 35 | 992.6 |
| 20260507204020 | 59 | 283 | 2.0 | 12.0 | 0.00 | 0.19 | 0.00 | 35 | 992.6 |
| 20260507203533 | 59 | 340 | 4.0 | 12.0 | 0.00 | 0.19 | 0.00 | 36 | 992.6 |
| 20260507203033 | 60 | 46 | 3.0 | 12.0 | 0.00 | 0.19 | 0.00 | 35 | 992.7 |
| 20260507202522 | 60 | 139 | 4.0 | 12.0 | 0.00 | 0.19 | 0.00 | 36 | 992.6 |
| 20260507202032 | 60 | 304 | 3.0 | 10.0 | 0.00 | 0.19 | 0.00 | 36 | 992.7 |
| 20260507201534 | 60 | 285 | 3.0 | 10.0 | 0.00 | 0.19 | 0.00 | 36 | 992.7 |
| 20260507201023 | 60 | 269 | 3.0 | 8.0 | 0.00 | 0.19 | 0.00 | 39 | 992.8 |
| 20260507200534 | 60 | 236 | 4.0 | 8.0 | 0.00 | 0.19 | 0.00 | 36 | 992.9 |
| 20260507200034 | 59 | 359 | 3.0 | 8.0 | 0.00 | 0.27 | 0.00 | 40 | 992.8 |
| 20260507195522 | 59 | 41 | 4.0 | 8.0 | 0.00 | 0.27 | 0.00 | 42 | 993.0 |
| 20260507195023 | 59 | 325 | 1.0 | 6.0 | 0.00 | 0.27 | 0.00 | 39 | 993.0 |
| 20260507194533 | 59 | 98 | 1.0 | 7.0 | 0.00 | 0.27 | 0.00 | 38 | 993.0 |
| 20260507194023 | 59 | 267 | 2.0 | 11.0 | 0.00 | 0.27 | 0.00 | 42 | 993.2 |
| 20260507193526 | 58 | 213 | 4.0 | 11.0 | 0.00 | 0.27 | 0.00 | 38 | 993.2 |
| 20260507193034 | 57 | 124 | 3.0 | 7.0 | 0.00 | 0.27 | 0.00 | 40 | 993.2 |
| 20260507192544 | 57 | 297 | 2.0 | 5.0 | 0.00 | 0.27 | 0.00 | 41 | 993.2 |
| 20260507192025 | 56 | 359 | 2.0 | 7.0 | 0.00 | 0.27 | 0.00 | 41 | 993.2 |
| 20260507191535 | 56 | 162 | 2.0 | 7.0 | 0.00 | 0.27 | 0.00 | 43 | 993.3 |
| 20260507191040 | 56 | 295 | 0.0 | 5.0 | 0.00 | 0.27 | 0.00 | 44 | 993.4 |
| 20260507190523 | 56 | 200 | 1.0 | 5.0 | 0.00 | 0.27 | 0.00 | 45 | 993.5 |
| 20260507190031 | 56 | 248 | 3.0 | 6.0 | 0.00 | 0.57 | 0.00 | 41 | 993.5 |
| 20260507185542 | 56 | 144 | 2.0 | 6.0 | 0.00 | 0.57 | 0.00 | 44 | 993.5 |
| 20260507185020 | 56 | 98 | 1.0 | 4.0 | 0.00 | 0.57 | 0.00 | 44 | 993.5 |
| 20260507184530 | 56 | 276 | 1.0 | 4.0 | 0.00 | 0.57 | 0.00 | 46 | 993.5 |
| 20260507184033 | 56 | 56 | 1.0 | 5.0 | 0.00 | 0.57 | 0.00 | 46 | 993.6 |
| 20260507183525 | 56 | 221 | 2.0 | 5.0 | 0.00 | 0.57 | 0.00 | 44 | 993.7 |
| 20260507183033 | 55 | 243 | 2.0 | 5.0 | 0.00 | 0.57 | 0.00 | 46 | 993.8 |
| 20260507182535 | 55 | 227 | 1.0 | 4.0 | 0.00 | 0.57 | 0.00 | 46 | 993.8 |
| 20260507182024 | 55 | 66 | 1.0 | 5.0 | 0.00 | 0.57 | 0.00 | 46 | 993.8 |
| 20260507181535 | 55 | 195 | 3.0 | 5.0 | 0.00 | 0.57 | 0.00 | 45 | 993.9 |
| 20260507181037 | 55 | 86 | 1.0 | 5.0 | 0.00 | 0.57 | 0.00 | 45 | 993.9 |
| 20260507180526 | 55 | 77 | 1.0 | 5.0 | 0.00 | 0.57 | 0.00 | 45 | 993.9 |
| 20260507180024 | 56 | 81 | 1.0 | 5.0 | 0.00 | 0.87 | 0.00 | 46 | 993.9 |
| 20260507175535 | 56 | 281 | 1.0 | 3.0 | 0.00 | 0.87 | 0.00 | 44 | 993.9 |
| 20260507175023 | 56 | 78 | 0.0 | 6.0 | 0.00 | 0.87 | 0.00 | 43 | 993.9 |
| 20260507174525 | 56 | 301 | 3.0 | 6.0 | 0.00 | 0.87 | 0.00 | 42 | 993.9 |
| 20260507174035 | 56 | 284 | 1.0 | 5.0 | 0.00 | 0.87 | 0.00 | 43 | 993.9 |
| 20260507173527 | 57 | 80 | 2.0 | 5.0 | 0.00 | 0.87 | 0.00 | 42 | 993.9 |
| 20260507173052 | 57 | 166 | 1.0 | 5.0 | 0.00 | 0.87 | 0.00 | 41 | 994.0 |
| 20260507172529 | 57 | 263 | 1.0 | 6.0 | 0.00 | 0.87 | 0.00 | 43 | 993.9 |
| 20260507172040 | 57 | 119 | 2.0 | 11.0 | 0.00 | 0.87 | 0.00 | 46 | 994.1 |
| 20260507171520 | 58 | 63 | 4.0 | 11.0 | 0.00 | 0.87 | 0.00 | 40 | 994.0 |
| 20260507171030 | 58 | 320 | 2.0 | 6.0 | 0.00 | 0.87 | 0.00 | 41 | 994.0 |
| 20260507170542 | 57 | 46 | 1.0 | 4.0 | 0.00 | 0.87 | 0.00 | 46 | 994.0 |
| 20260507170020 | 57 | 134 | 0.0 | 3.0 | 0.00 | 0.98 | 0.00 | 45 | 994.2 |
| 20260507165531 | 56 | 253 | 1.0 | 4.0 | 0.00 | 0.98 | 0.00 | 44 | 994.3 |
| 20260507165041 | 57 | 22 | 2.0 | 8.0 | 0.00 | 0.98 | 0.00 | 43 | 994.3 |
| 20260507164521 | 57 | 6 | 2.0 | 9.0 | 0.00 | 0.98 | 0.00 | 42 | 994.5 |
| 20260507164030 | 58 | 9 | 3.0 | 7.0 | 0.00 | 0.98 | 0.00 | 40 | 994.5 |
| 20260507163542 | 58 | 259 | 3.0 | 9.0 | 0.00 | 0.98 | 0.00 | 43 | 994.5 |
| 20260507163021 | 58 | 328 | 3.0 | 11.0 | 0.00 | 0.98 | 0.00 | 41 | 994.6 |
| 20260507162531 | 58 | 137 | 4.0 | 11.0 | 0.00 | 0.98 | 0.00 | 41 | 994.7 |
| 20260507162032 | 58 | 219 | 3.0 | 13.0 | 0.00 | 0.98 | 0.00 | 44 | 994.7 |
| 20260507161521 | 58 | 226 | 4.0 | 13.0 | 0.00 | 0.98 | 0.00 | 40 | 994.7 |
| 20260507161033 | 58 | 328 | 0.0 | 3.0 | 0.00 | 0.98 | 0.00 | 46 | 994.8 |
| 20260507160535 | 58 | 333 | 0.0 | 0.0 | 0.00 | 0.98 | 0.00 | 43 | 995.0 |
| 20260507160024 | 57 | 112 | 0.0 | 0.0 | 0.00 | 1.18 | 0.00 | 46 | 994.9 |
| 20260507155521 | 56 | 123 | 0.0 | 0.0 | 0.00 | 1.18 | 0.00 | 45 | 994.9 |
| 20260507155027 | 56 | 109 | 0.0 | 0.0 | 0.00 | 1.18 | 0.00 | 45 | 995.0 |
| 20260507154539 | 56 | 259 | 0.0 | 0.0 | 0.00 | 1.18 | 0.00 | 41 | 995.1 |
| 20260507154025 | 56 | 226 | 0.0 | 0.0 | 0.00 | 1.18 | 0.00 | 41 | 995.1 |
| 20260507153535 | 55 | 8 | 0.0 | 0.0 | 0.00 | 1.18 | 0.00 | 43 | 995.3 |
| 20260507153021 | 55 | 290 | 0.0 | 0.0 | 0.00 | 1.18 | 0.00 | 41 | 995.3 |
| 20260507152529 | 56 | 152 | 0.0 | 0.0 | 0.00 | 1.18 | 0.00 | 44 | 995.2 |
| 20260507152037 | 55 | 339 | 0.0 | 0.0 | 0.00 | 1.18 | 0.00 | 46 | 995.3 |
| 20260507151524 | 55 | 299 | 0.0 | 0.0 | 0.00 | 1.18 | 0.00 | 46 | 995.3 |
| 20260507151027 | 55 | 41 | 0.0 | 0.0 | 0.00 | 1.18 | 0.00 | 42 | 995.4 |
| 20260507150537 | 55 | 228 | 0.0 | 0.0 | 0.00 | 1.18 | 0.00 | 46 | 995.4 |
| 20260507150036 | 55 | 221 | 0.0 | 0.0 | 0.00 | 1.32 | 0.00 | 45 | 995.5 |